Weather in Vorob'i

Russia / Kaluga Oblast     55°08′42″N   36°48′04″E
temp.,
°C
wind,
m/s
gust,
m/s
humid.,
%
clouds,
%
prec.,
mm/h
press.,
hPa
HPBL,
m
14 april, wed
wed1400:00+10se396741 0.0 1020152
03:00+11se4126839 0.0 1020282
06:00+9sse3108826 0.0 1020230
09:00+14s377491 0.0 1020447
12:00+17s4757100 0.0 10191185
15:00+18sse4651100 0.1 10181508
18:00+17ssw115930 0.1 101721
21:00+11ese2260100 0.1 101812
15 april, thu
thu1500:00+10e2260100 0.0 101712
03:00+9ese2264100 0.0 101719
06:00+8e2265100 0.0 101631
09:00+12e2557100 0.0 1017244
12:00+16ene2346100 0.0 1016774
15:00+17ene4640100 0.0 10161519
18:00+15ene3950100 0.0 1016338
21:00+13ne5145786 0.1 1016536
16 april, fri
fri1600:00+11ne61382100 0.3 1017581
03:00+9ene51286100 0.5 1018551
06:00+7ene51289100 0.0 1019498
09:00+9ene61281100 0.3 1020557
12:00+13e61065100 0.3 10201017
15:00+15ene61058100 0.4 10201490
18:00+13ene61162100 0.0 10211045
21:00+11ene61370100 0.0 1022776
17 april, sat
sat1700:00+9e51277100 0.0 1023717
03:00+7ene51183100 0.0 1024597
06:00+6ene51280100 0.1 1025512
09:00+8ene51169100 0.1 1026588
12:00+12ene6954100 0.0 1025970
15:00+14ene69468 0.0 10251362
18:00+13ene6104538 0.0 10251237
21:00+8ene513505 0.0 1026481
18 april, sun
sun1800:00+7ene513581 0.0 1027499
03:00+5ene413654 0.0 1027413
06:00+4ene412700 0.0 1028369
09:00+8e5105213 0.0 1028734
12:00+12e57395 0.0 10281473
15:00+14e563453 0.0 10271921
18:00+12ene46425 0.0 1027931
21:00+7ne376359 0.0 1028121